Location: Newark
(38.1091°N, 103.8677°W)
Time: 00:10:20
(UTC+00:00)

N. Korean satellite - Pass Details

Date: 25 October 2019
Orbit: 456 x 506 km, 97.2° (Epoch: 16 November)

Event Time Altitude Azimuth Distance (km) Brightness Sun altitude
Rises 00:39:32 0° 192° (SSW) 2,460 10.4 -7.3°
Reaches altitude 10° 00:41:46 10° 205° (SSW) 1,594 9.7 -7.7°
Maximum altitude 00:44:41 26° 264° (W) 939 9.1 -8.3°
Drops below altitude 10° 00:47:39 10° 323° (NW) 1,619 9.6 -8.9°
Sets 00:49:57 0° 336° (NNW) 2,507 10.4 -9.3°
